Location: La Petru�re
(48.1085°N, 0.9379°W)
Time: 15:03:47
(UTC+00:00)

Daily predictions for brighter satellites

Satellite Brightness Start Highest point End
(mag) Time Altitude Azimuth Time Altitude Azimuth Time Altitude Azimuth
Cosmos 2333 Rocket 3.3 20:42:30 10° SSE 20:47:02 25° ESE 20:51:37 10° NE
ATLAS 2AS CENTAUR R/B 4.3 20:42:18 10° NW 20:49:10 32° NNE 20:55:36 10° E
Resurs 01 Rocket 2.2 20:48:01 10° S 20:52:22 59° W 20:56:45 10° NNW
Cosmos 1818 3.6 20:48:33 10° SSW 20:53:54 62° ESE 20:59:17 10° NE
CZ-2C R/B 3.7 20:48:54 10° N 20:54:09 50° WNW 20:59:16 10° SW
Cosmos-2242 3.3 20:50:06 10° N 20:54:22 55° ENE 20:58:39 10° SSE
SL-16 R/B 3.0 20:52:12 10° SW 20:57:46 57° WNW 21:03:23 10° NNE
Cosmos 2221 4.5 20:56:07 10° NNE 20:58:59 17° ENE 21:01:49 10° ESE
ERS-1 Rocket 3.5 20:57:07 10° SE 21:01:56 47° ENE 21:06:45 10° N
GEOS 3 Rocket 3.8 20:59:08 10° NE 21:04:26 54° SE 21:09:41 10° SSW
Cosmos 2278 Rocket 3.6 21:02:38 10° NNW 21:07:33 29° NE 21:12:26 10° ESE
USA 215 3.6 21:01:55 10° ENE 21:08:01 40° SE 21:14:06 10° SSW
ATLAS 5 CENTAUR R/B 1.4 21:06:26 10° SSW 21:10:32 70° SE 21:15:10 10° NE
USA 245 3.2 21:08:48 10° S 21:12:05 79° WSW 21:16:17 10° NNW
Cosmos 1844 Rocket 2.8 21:07:10 10° NNW 21:12:45 76° WSW 21:18:16 10° SSE
Gblst 52 Del rocket 4.5 21:07:22 10° WNW 21:12:59 76° NNE 21:19:13 10° ESE
Cosmos 1400 Rocket 2.8 21:09:42 10° N 21:13:43 88° ENE 21:17:39 10° S
Cosmos 1758 Rocket 3.7 21:10:27 10° S 21:14:56 88° W 21:19:29 10° N
Meteor 2-10 Rocket 4.3 21:11:51 10° NNW 21:16:46 50° W 21:21:49 10° S
SPOT 5 3.2 21:13:56 11° SSE 21:18:36 56° ENE 21:23:17 10° N
Lacrosse 5 rocket 3.7 21:15:08 10° WNW 21:18:45 26° NNW 21:22:12 10° NE
BREEZE-M DEB (TANK) 4.4 21:15:43 10° W 21:19:43 81° N 21:35:03 10° E
Spot 2 Rocket 3.8 21:17:23 10° S 21:22:27 67° WSW 21:27:33 10° NNW
USA 81 4.3 21:19:52 10° SSE 21:24:58 52° E 21:30:06 10° NNE
BREEZE M DEB (TANK) 2.1 21:23:51 10° WNW 21:26:30 44° SSW 21:27:39 20° SE
Landsat 7 4.2 21:22:15 10° S 21:26:57 64° WSW 21:31:43 10° NNW
Cosmos 2181 Rocket 4.1 21:22:15 10° N 21:28:37 69° E 21:34:15 13° SSE
SPOT 1/Viking Rocket 3.9 21:31:57 10° S 21:37:03 65° WSW 21:42:13 10° NNW
Cosmos 1953 Rocket 3.5 21:33:45 10° S 21:38:04 88° ESE 21:42:25 10° N
USA 267 3.6 21:34:52 10° ESE 21:41:22 67° NNE 21:47:53 10° NW
SAR-Lupe-2 3.8 21:40:12 10° N 21:43:48 72° WNW 21:47:22 10° SSW
Cosmos 2084 3.6 21:40:22 10° NW 21:44:51 78° NE 21:48:05 18° SE
Cosmos 2322 Rocket 4.1 21:40:15 10° WSW 21:45:17 33° NW 21:50:20 10° NNE
Cosmos 1842 Rocket 3.9 21:41:54 10° N 21:46:11 51° ENE 21:49:02 19° SSE
Cosmos 1455 4.3 21:43:55 10° NW 21:46:58 23° W 21:50:02 10° SW
ATLAS CENTAUR R/B 1.0 21:52:40 10° NW 21:56:23 82° SW 21:58:26 24° SSE
Cosmos 1825 4.3 21:58:08 12° E 21:59:07 13° E 22:00:56 10° NE
Cosmos 1980 4.5 21:56:55 19° SSE 22:00:09 33° ESE 22:05:09 10° NE
COSMOS 2428 2.6 21:59:13 10° SSW 22:04:52 79° ESE 22:10:35 10° NNE
Cosmos 1869 3.3 22:03:11 10° N 22:07:10 69° E 22:09:22 25° SSE
Cosmos 2322 4.2 22:03:09 10° SW 22:08:49 63° WNW 22:14:31 10° NNE
NOSS 0 Rocket 4.1 22:07:31 15° S 22:12:21 50° ESE 22:18:17 10° NE
NOSS 3-4 (A) 4.1 22:06:29 10° NW 22:13:17 63° NE 22:19:46 15° ESE
NOSS 3-4 (C) 4.2 22:06:35 10° NW 22:13:24 62° NE 22:19:54 14° ESE
Terra 2.1 22:10:33 19° S 22:13:56 64° WSW 22:18:41 10° NNW
Cosmos 2237 Rocket 2.7 22:14:58 21° SSE 22:18:20 43° ESE 22:23:41 10° NE
Genesis I 4.3 22:18:36 24° ESE 22:18:48 25° ESE 22:22:01 10° ENE
BREEZE-M DEB 4.2 22:15:49 10° WNW 22:19:46 71° SSW 22:35:20 10° ESE
Cosmos 2219 Rocket 2.4 22:15:08 10° SW 22:20:42 73° WNW 22:26:21 10° NNE
Cosmos 2344 4.1 22:16:02 18° S 22:20:46 37° ESE 22:27:47 10° NE
Atlas Centaur 2 4.1 22:17:44 10° SW 22:21:21 15° S 22:21:21 15° S
Cosmos 1538 Rocket 4.3 22:16:38 10° SSW 22:21:59 71° WNW 22:27:19 10° NNE
Cosmos 2360 Rocket 4.1 22:18:09 10° WSW 22:23:09 31° NW 22:28:12 10° NNE
NOSS 3-3 (A) 4.0 22:17:23 10° SW 22:23:16 87° NW 22:30:01 10° NE
NOSS 3-3 (C) 4.0 22:17:29 10° SW 22:23:23 88° NW 22:30:08 10° NE
Cosmos 1315 Rocket 3.9 22:23:28 10° NNW 22:27:18 39° W 22:29:55 18° SSW
DELTA 2 R/B (1) 4.4 22:23:14 10° SW 22:27:54 28° SSE 22:30:02 22° SE
Cosmos 2333 Rocket 2.8 22:25:16 10° SW 22:30:52 59° WNW 22:36:35 10° NNE
Thor Agena Rocket 4.0 22:26:02 10° NNE 22:30:56 44° E 22:33:18 27° SSE
Cosmos 2184 Rocket 4.0 22:27:10 17° S 22:32:11 86° W 22:38:32 10° N
Meteor 2-2 Rocket 4.4 22:26:24 10° NNW 22:32:14 76° W 22:35:55 23° S
Cosmos 2221 2.9 22:32:38 10° NNW 22:36:57 57° W 22:39:20 25° SSW
BREEZE-M DEB (TANK) 1.7 22:35:21 10° WNW 22:40:02 77° N 22:41:22 26° E
Iridium 2 3.9 22:37:21 10° N 22:41:09 56° E 22:42:26 36° SE
Cosmos 1371 Rocket 4.2 22:36:05 10° NNW 22:41:19 63° ENE 22:44:15 26° SE
ATLAS 2AS CENTAUR R/B 2.9 22:33:40 10° NW 22:41:21 79° NE 22:46:25 21° SE
Cosmos 1892 2.6 22:41:59 31° SSW 22:43:41 84° W 22:47:30 10° N
EO 1 Del DPAF 3.6 22:40:23 10° NNE 22:44:02 46° E 22:44:59 36° SE
Aureole 2 Rocket 3.5 22:45:55 10° N 22:48:22 25° ENE 22:48:59 23° E
Cosmos 1606 4.0 22:47:30 10° N 22:50:59 31° ENE 22:52:19 25° ESE
Cosmos 2112 Rocket 4.1 22:48:23 26° S 22:51:21 66° ESE 22:56:41 10° NNE
USA 215 3.4 22:44:48 10° NE 22:51:22 77° NNW 22:57:54 10° WSW
Cosmos 2278 Rocket 2.5 22:46:27 10° NW 22:52:01 59° WSW 22:54:59 28° S
Cosmos 2297 4.4 22:47:51 10° NNW 22:53:27 49° NE 22:57:11 20° ESE
Cosmos 158 Rocket 3.7 22:52:56 28° S 22:55:32 75° ESE 23:00:28 10° NNE
ATLAS 5 CENTAUR R/B 4.1 22:51:59 10° W 22:55:40 25° NNW 22:59:46 10° NNE
Lacrosse 5 rocket 3.5 22:55:27 10° NW 22:58:53 25° N 23:02:11 10° ENE
Cosmos 1943 Rocket 3.7 22:54:51 10° NNW 22:59:52 31° NE 23:04:40 11° ESE
Spot 4 3.8 22:59:07 33° SSE 23:01:19 86° WSW 23:06:08 10° NNW
SL-16 R/B 2.9 23:00:46 28° SE 23:02:43 36° ESE 23:07:52 10° NE
Cosmos 2058 3.5 23:01:10 24° SW 23:03:27 53° WNW 23:07:32 10° N
Cosmos 1408 2.5 23:03:24 42° SSW 23:04:30 76° W 23:08:06 10° N
Cosmos 2056 Rocket 3.6 22:59:50 10° NNW 23:05:17 84° ENE 23:07:58 31° SSE
Nadezhda 3 Rocket 4.3 23:03:53 10° NNW 23:10:11 64° W 23:13:54 25° SSW
Cosmos 2154 Rocket 4.2 23:07:50 21° SSW 23:12:05 68° W 23:18:18 10° N
Cosmos 2341 Rocket 4.0 23:11:46 29° S 23:15:08 76° E 23:21:22 10° NNE
Cosmos 1076 Rocket 4.3 23:12:53 23° SW 23:15:17 46° WNW 23:19:26 10° N
Cosmos 1680 Rocket 3.8 23:15:58 19° SW 23:19:45 66° WNW 23:25:05 10° NNE
Meteor 2-3 Rocket 4.4 23:21:02 28° SE 23:23:21 42° E 23:28:40 10° NNE
USA 267 3.6 23:21:24 29° SSE 23:24:33 49° SW 23:30:54 10° WNW
Cosmos 2151 3.0 23:23:52 39° SSW 23:25:25 81° W 23:29:44 10° N
Helios 1A 3.8 23:24:53 29° ESE 23:26:29 42° ENE 23:30:27 10° N
Cosmos 1452 Rocket 4.0 23:27:07 10° NNW 23:32:18 54° ENE 23:35:06 26° SE
CZ-4C R/B 3.9 23:26:01 10° NW 23:32:30 43° NE 23:40:00 10° ESE
BREEZE-M DEB (TANK) 4.2 23:30:33 10° W 23:32:45 15° WSW 23:32:45 15° WSW
COSMOS 2455 3.4 23:27:57 10° NNW 23:33:54 55° NE 23:38:24 18° ESE
SL-8 Rocket 3.9 23:30:59 31° S 23:34:05 78° E 23:40:16 10° NNE
Cosmos 1825 2.7 23:32:56 35° SW 23:34:09 52° WNW 23:37:53 10° N
IRIDIUM 114 4.3 23:32:35 36° SSE 23:34:45 73° E 23:39:58 10° N
Cosmos 1340 3.0 23:34:23 44° SE 23:34:56 48° E 23:38:35 10° NNE
ALOS 2 2.6 23:35:27 42° S 23:36:52 74° WSW 23:41:17 10° NNW
Cosmos 1408 Rocket 3.9 23:35:56 39° SE 23:37:08 52° E 23:41:25 10° NNE
Cosmos 1933 3.3 23:33:09 10° N 23:37:11 77° ENE 23:38:13 48° SSE
Cosmos 1151 Rocket 2.9 23:34:23 10° N 23:38:45 86° E 23:40:03 45° SSE
Meteor 2-12 Rocket 4.5 23:37:27 32° S 23:40:24 73° E 23:46:32 10° NNE
IRIDIUM 103 4.3 23:41:42 36° S 23:43:53 86° E 23:49:08 10° N
APEX 3.0 23:41:41 10° NNW 23:44:22 48° ENE 23:44:22 48° ENE
Cosmos 2369 Rocket 3.1 23:39:16 10° NNW 23:44:36 43° NE 23:48:49 16° ESE
Cosmos 1727 Rocket 4.2 23:38:34 10° N 23:44:47 64° ENE 23:48:04 29° SSE
Cosmos 44 2.9 23:43:37 43° SSW 23:44:57 74° SE 23:49:24 10° NE
GP-B 3.1 23:42:54 10° N 23:47:21 74° W 23:48:50 41° SSW
SL-4 R/B 2.8 23:48:59 25° N 23:48:59 25° N 23:50:01 10° NNW
Cosmos 371 Rocket 3.2 23:43:44 10° NNW 23:48:38 88° WSW 23:50:25 40° SSE
Helios 1B rocket 3.9 23:51:09 10° NE 23:54:32 24° E 23:55:23 23° ESE
CREW DRAGON DEMO-1 DEB 2.8 23:54:49 77° WNW 23:54:55 80° NNW 23:58:00 10° ENE
Genesis I 4.3 23:53:26 16° WSW 23:56:13 41° NW 23:59:56 10° NNE
